SCP
0 0 0 0 0 0 0 0 0 0 0 0 0 0 0 0 0 0 0 0 0 0 0 0 0 0 0 0 0 0 0 0 0 0 0 -0 -0 -0 -0 -0 0 0 0 0 0 0 0 0 0 0 0 0 0 0
0 0 0 0 0 0 0 0 0 0 0 0 0 0 0 0 0 0 0 0 0 0 0 0 0 0 0 0 0 -0 -0 -0 -0 0 0 0 -0 -0 -0 -0 0 0 0 0 0 0 0 0 0 0 0 0 0 0
0 0 0 0 0 0 0 0 0 0 0 0 0 0 0 0 0 0 0 0 0 0 0 0 0 0 0 0 0 0 -0 -0 -0 0 0 0 0 -0 0 -0 -0 0 0 0 0 0 0 0 0 0 0 0 0 0
0 0 0 0 0 0 0 0 0 0 0 0 0 0 0 0 0 0 0 0 0 0 0 0 0 0 0 0 0 0 0 0 -0 0 0 -0 -0 -0 -0 -0 -0 -0 0 0 0 0 0 0 0 0 0 0 0 0
0 0 0 0 0 0 0 0 0 0 0 0 0 0 0 0 0 0 0 0 0 0 0 0 0 0 0 0 0 -0 0 0 0 -0 0 -0 -0 -0 -0 -0 -0 -0 -0 0 0 0 0 0 0 0 0 0 0 0
0 0 0 0 0 0 0 0 0 0 0 0 0 0 0 0 0 0 0 0 0 0 0 0 0 0 0 0 0 -0 -0 -0 -0 -0 -0 -0 -0 -0 -0 -0 -0 -0 -0 -0 0 0 0 0 0 0 0 0 0 0
0 0 0 0 0 0 0 0 0 0 0 0 0 0 0 0 0 0 0 0 0 0 0 0 0 0 0 0 0 0 -0 -0 -0 0 0 0 -0 -0 -0 -0 0 -0 -0 -0 -0 0 0 0 0 0 0 0 0 0
0 0 0 0 0 0 0 0 0 0 0 0 0 0 0 0 0 0 0 0 0 0 0 0 0 0 0 0 0 0 0 -0 0 0 0 0 0 -0 -0 -0 -0 0 0 -0 -0 -0 0 0 0 0 0 0 0 0
0 0 0 0 0 0 0 0 0 0 -0 -0 0 0 0 0 0 0 0 0 0 0 0 0 0 0 0 0 0 0 0 0 0 -0 -0 -0 -0 -0 -0 -0 -0 -0 0 0 -0 -0 0 0 0 0 0 0 0 0
0 0 0 0 0 0 0 0 0 0 0 0 0 0 0 0 0 0 0 0 0 0 0 0 0 0 0 0 0 0 0 0 0 0 0 0 0 0 0 0 0 0 0 0 -0 -0 -0 0 0 0 0 0 0 0
0 0 0 0 0 0 0 0 0 0 0 0 0 0 0 0 0 0 0 0 0 0 0 0 0 0 0 0 0 0 0 0 0 0 0 0 -0 -0 0 -0 0 0 0 0 0 0 -0 -0 0 0 0 0 0 0
0 0 0 0 0 0 0 0 0 0 0 0 0 0 0 0 0 0 0 0 0 0 0 0 0 0 0 0 0 0 0 0 0 0 0 0 -0 -0 -0 -0 -0 0 0 0 0 0 0 0 0 0 0 0 0 0
0 0 0 0 0 0 0 0 0 0 0 0 0 0 0 0 0 0 0 0 0 0 0 0 0 0 0 0 0 0 0 0 0 0 0 0 0 0 -0 -0 0 0 0 0 0 0 0 0 0 0 0 0 0 0
0 -0 0 0 0 0 0 0 0 0 0 0 0 0 0 0 0 0 0 0 0 0 0 0 0 0 0 0 0 0 0 0 0 0 0 0 0 0 -0 -0 -0 0 0 0 0 0 0 0 0 0 0 0 0 0
0 -0 0 0 0 0 0 0 0 0 0 0 0 0 0 0 0 0 0 0 0 0 0 -0 0 0 0 0 0 0 0 0 0 0 0 0 0 0 0 -0 -0 -0 0 0 0 0 0 0 0 0 0 0 0 0
0 0 0 0 -0 0 0 0 0 0 0 0 0 0 0 0 0 0 0 0 0 0 0 0 0 0 -0 0 -0 0 0 0 0 0 0 0 0 0 0 0 -0 0 -0 -0 0 0 0 0 0 0 0 0 0 0
0 0 0 0 0 0 0 0 0 0 0 0 0 0 0 0 0 0 0 0 0 0 0 0 0 0 0 0 0 0 0 0 0 0 0 0 0 0 0 0 0 -0 0 0 -0 -0 0 0 0 0 0 0 0 0
0 0 0 0 0 0 0 0 0 0 0 0 0 0 0 0 0 0 0 0 0 0 0 0 0 0 0 0 0 0 0 0 0 0 0 0 0 0 0 0 0 0 0 -0 -0 -0 0 0 0 0 0 0 0 0
0 0 0 0 0 0 0 0 0 0 0 0 0 0 0 0 0 0 0 0 0 0 0 0 0 0 0 0 0 0 -0 -0 0 -0 -0 0 0 -0 -0 -0 0 0 -0 -0 -0 -0 -0 -0 0 0 0 0 0 0
0 0 0 0 0 0 0 0 0 0 0 0 0 0 0 0 0 0 0 0 0 0 0 0 0 0 0 0 0 0 0 0 0 0 0 0 0 0 0 -0 -0 0 0 0 0 -0 -0 -0 -0 -0 0 0 0 0
0 0 0 0 0 0 0 0 0 0 0 0 0 0 0 0 0 0 0 0 0 0 0 0 0 0 0 0 -0 0 0 0 0 0 0 0 0 0 0 0 0 0 0 0 0 -0 -0 -0 -0 -0 -0 0 0 0
0 0 0 0 0 0 0 0 0 0 0 0 0 0 0 0 0 0 0 0 0 0 0 0 0 0 0 0 -0 0 0 0 0 0 0 0 0 0 0 0 0 0 0 -0 -0 0 -0 0 -0 -0 0 0 0 0
0 0 0 0 0 0 0 0 0 0 0 0 0 0 0 0 0 0 0 0 0 0 0 0 0 0 0 0 0 0 0 0 0 0 0 0 0 0 0 0 0 0 0 0 -0 -0 -0 0 -0 -0 -0 0 0 0
0 0 0 0 0 0 0 0 0 0 0 0 0 0 0 0 0 0 0 0 0 0 0 0 0 0 0 0 0 0 0 0 0 0 0 0 0 0 0 0 0 0 0 0 -0 -0 -0 -0 0 0 0 0 -0 0
0 0 0 0 0 0 0 0 0 0 0 0 0 0 0 0 0 0 0 0 0 0 0 0 0 0 0 0 0 0 0 0 0 0 0 0 0 0 0 0 0 0 0 0 -0 -0 -0 -0 0 0 -0 -0 0 -0
0 0 0 0 0 0 0 0 0 0 0 0 0 0 0 0 0 0 0 0 0 0 0 0 0 0 0 0 0 0 0 0 0 0 0 0 0 0 0 0 0 0 0 0 0 0 0 -0 -0 -0 0 -0 -0 0
0 0 0 0 0 0 0 0 0 0 0 0 0 0 0 0 0 0 0 0 0 0 0 0 0 0 0 0 0 0 0 0 0 0 0 0 0 0 0 0 0 0 0 0 0 0 0 -0 -0 -0 -0 0 0 0
0 0 0 0 0 0 0 0 0 0 0 0 0 0 0 0 0 0 0 0 0 0 0 0 0 0 0 0 0 0 0 0 0 0 0 0 0 0 0 0 0 0 0 0 0 0 0 0 0 0 0 0 0 0
0 0 0 0 0 0 0 0 0 0 0 0 0 0 0 0 0 0 0 0 0 0 0 0 0 0 0 0 0 0 0 0 0 0 0 0 0 0 0 0 0 0 0 0 0 0 0 0 0 0 0 0 0 0
0 0 0 0 0 0 0 0 0 0 0 0 0 0 0 -0 -0 0 0 0 0 0 0 0 0 0 0 0 0 0 0 0 0 0 0 0 0 0 0 0 0 0 0 0 0 0 0 0 0 0 0 0 0 0
0 0 0 0 0 0 0 0 0 0 0 0 0 0 0 0 0 0 0 0 0 0 0 0 0 0 0 0 0 0 0 0 0 0 0 0 0 0 0 0 0 0 0 0 0 0 0 0 0 0 0 0 0 0
0 0 0 0 0 0 0 0 0 0 0 0 0 0 0 0 0 0 0 0 0 0 0 0 0 0 0 0 0 0 0 0 0 0 0 0 0 0 0 0 0 0 0 0 0 0 0 0 0 0 0 0 0 0
0 0 0 0 0 0 0 0 0 0 0 0 0 0 0 0 0 0 0 0 0 0 0 0 0 0 0 0 0 0 0 0 0 0 0 0 0 0 0 0 0 0 0 0 0 -0 0 0 0 0 0 0 0 0
Wind_Speed_500mb
58 58 58 61 63 63 59 59 60 60 66 66 64 50 36 31 26 29 32 15 22 15 54 19 13 35 31 12 5 14 18 6 6 6 3 6 6 9 5 7 9 8 9 5 8 3 9 55 17 15 15 49 48 44
62 62 62 62 63 64 63 59 60 65 70 72 62 49 38 29 29 24 38 25 27 33 53 64 38 26 32 32 20 6 6 6 6 5 4 5 3 5 3 5 3 3 9 7 10 1 14 22 22 25 36 38 59 65
63 64 66 66 65 64 64 60 60 71 74 73 63 48 36 30 27 23 33 25 23 24 45 12 10 25 19 21 19 9 10 9 10 14 5 3 5 1 2 5 7 7 15 6 13 4 33 28 41 54 61 64 66 79
64 65 67 68 68 68 65 57 63 72 73 70 60 47 34 26 19 18 23 14 17 19 9 20 28 29 23 20 24 26 25 22 30 29 6 5 4 12 3 4 5 5 10 13 11 17 48 2 56 68 82 79 96 93
65 66 68 69 70 70 61 58 69 73 69 67 56 40 31 25 16 12 9 2 1 8 9 26 37 13 12 13 19 23 38 44 38 8 3 5 6 5 2 9 10 11 8 5 6 33 21 41 59 71 79 87 86 83
64 67 67 68 69 66 59 64 72 71 67 60 46 30 27 21 16 9 4 1 6 17 12 8 21 17 17 19 22 43 37 44 26 8 6 11 7 5 2 4 3 27 16 15 11 39 46 63 55 60 70 79 84 76
63 67 67 67 67 63 60 68 73 70 67 51 35 21 20 18 14 5 5 15 18 21 8 11 12 12 31 22 21 18 21 21 34 13 9 11 12 10 6 6 7 20 21 22 21 45 43 27 40 58 66 64 76 63
62 66 67 66 66 62 56 70 73 68 63 36 26 25 14 15 19 14 15 21 16 9 7 5 9 13 16 12 14 12 11 11 3 10 9 4 9 4 6 10 24 24 28 30 25 40 47 46 44 49 55 58 72 64
61 65 66 67 66 58 55 69 73 66 57 39 23 18 4 6 11 23 32 20 5 8 5 4 5 7 23 13 11 14 12 5 7 1 4 3 7 5 16 33 47 50 35 33 25 36 33 34 41 36 43 46 54 63
59 64 65 65 66 55 55 67 71 63 56 41 16 9 5 20 29 24 8 5 4 4 7 6 4 5 12 8 7 12 11 6 6 2 15 5 5 16 46 52 49 56 55 47 31 26 34 28 41 36 27 36 40 43
58 63 64 64 64 55 54 65 66 62 51 43 22 8 23 14 10 6 7 3 8 5 7 12 15 17 13 4 4 10 4 6 8 7 7 4 3 17 56 55 51 49 47 48 50 37 33 31 35 42 34 31 31 39
58 60 63 66 64 49 55 59 61 54 46 38 22 18 16 13 9 9 6 8 5 6 10 10 28 9 4 9 8 8 5 6 5 18 8 7 8 42 46 48 48 52 56 50 41 31 29 27 27 41 39 29 25 31
60 58 60 64 54 45 56 55 51 42 36 17 8 7 7 9 15 8 8 9 6 8 23 39 11 1 3 11 5 3 7 5 15 4 5 5 23 50 49 41 40 51 53 48 43 29 14 20 41 47 43 43 35 31
65 60 57 57 44 61 59 48 42 30 13 5 5 10 6 4 5 9 9 10 26 19 46 41 3 5 5 5 2 8 4 3 9 8 6 9 45 58 60 55 44 45 54 44 42 33 25 26 25 25 55 45 35 39
66 64 54 43 57 60 51 42 27 14 5 5 4 5 6 12 23 42 42 19 33 43 43 10 7 7 6 6 6 7 13 8 6 5 5 39 58 59 50 46 47 52 49 48 42 39 35 34 33 28 14 30 33 40
70 66 49 53 58 58 46 34 9 6 6 7 10 4 17 7 20 26 28 31 35 40 23 7 5 7 6 3 10 6 12 5 7 6 42 60 53 49 47 45 47 40 47 44 30 33 42 53 44 37 33 30 31 19
66 57 55 52 58 53 36 12 4 8 8 8 11 23 32 34 34 36 28 32 31 31 3 5 5 8 2 6 2 4 5 8 30 54 56 47 47 41 35 36 39 46 43 42 41 42 32 47 41 42 45 47 37 45
65 60 51 46 53 49 25 8 7 9 10 18 10 29 30 34 36 25 25 27 24 31 3 4 5 5 4 5 7 7 19 39 43 49 34 27 25 32 37 40 46 38 52 44 52 54 38 24 34 42 45 45 51 55
61 61 50 23 30 31 11 7 12 9 17 22 30 34 34 32 33 36 29 29 25 21 6 2 3 5 6 11 7 19 39 41 49 33 28 24 17 27 42 44 55 45 57 56 61 50 55 41 10 15 32 32 38 43
54 52 34 19 22 10 10 13 12 13 11 13 18 30 34 30 38 42 23 15 8 8 2 2 8 7 5 3 3 10 19 30 32 29 42 33 15 22 35 39 39 53 50 67 64 63 61 58 31 16 8 12 20 23
49 34 26 18 24 25 15 12 14 18 15 16 23 32 24 26 38 45 21 20 10 7 5 16 18 14 9 7 9 11 6 17 7 14 28 32 31 34 37 36 45 39 41 52 62 58 66 56 59 49 55 46 37 42
42 25 35 13 12 13 20 24 17 9 15 28 39 45 19 15 26 42 38 16 14 24 26 24 9 11 11 7 5 1 8 10 14 7 22 22 26 30 36 38 41 48 50 46 42 51 55 56 53 48 37 34 50 44
14 9 11 13 13 14 15 21 13 14 7 8 8 6 7 9 13 16 7 14 26 33 31 28 15 5 2 7 13 10 5 9 12 18 15 18 9 15 24 30 38 40 44 44 39 42 52 55 44 48 56 49 41 46
15 11 11 12 21 11 10 9 14 10 9 1 5 7 7 10 8 4 8 24 40 37 36 32 20 7 12 2 4 2 8 11 10 9 13 12 20 8 17 25 28 31 31 34 36 37 38 44 44 50 47 51 55 58
10 16 15 15 13 10 8 7 6 1 9 9 9 7 6 6 2 5 6 14 25 31 33 23 29 9 12 3 2 7 16 12 11 12 17 14 11 5 11 9 21 20 27 28 30 34 38 35 40 39 39 40 49 50
13 15 18 15 8 11 9 7 8 10 7 7 10 10 10 5 7 9 6 10 14 27 33 25 25 19 14 16 10 2 2 7 6 6 8 7 4 7 10 17 16 20 19 22 21 24 26 30 34 36 35 34 35 39
12 13 20 23 13 13 5 8 7 1 7 10 7 8 6 8 8 8 17 13 15 27 19 17 20 18 11 4 10 11 5 7 10 7 8 3 7 11 15 18 16 15 20 19 15 16 20 25 28 29 28 23 26 27
26 12 12 16 16 19 6 4 7 7 8 11 8 6 10 15 9 6 7 11 22 26 19 11 4 13 13 8 12 11 8 12 7 7 12 19 11 6 5 13 6 7 10 15 16 15 16 18 21 23 22 26 24 21
17 22 20 9 16 13 16 13 11 19 20 9 1 5 7 13 23 26 24 17 18 19 28 24 17 22 16 12 12 16 16 13 14 2 18 19 14 10 9 18 15 2 7 11 15 19 20 17 14 14 14 16 19 20
15 36 16 11 10 14 21 34 31 42 39 41 41 33 33 43 46 47 43 29 18 15 16 12 25 27 21 21 16 9 4 6 11 8 17 14 12 13 13 8 10 8 15 19 23 28 29 25 15 6 2 3 6 9
13 34 16 19 12 27 47 50 42 45 50 43 35 30 39 47 24 12 4 5 17 41 27 31 25 19 18 18 12 11 11 13 15 16 16 14 16 22 21 18 21 17 20 22 22 24 26 18 6 4 6 5 4 2
25 27 15 10 17 49 44 35 37 35 33 18 13 30 34 15 8 10 8 11 12 30 34 28 24 20 14 9 4 8 8 10 12 11 6 7 11 15 15 17 15 14 18 19 19 23 24 16 6 2 5 11 12 12
42 36 38 21 13 15 33 26 14 10 23 24 35 42 41 13 9 9 9 13 20 18 13 16 21 19 5 7 11 15 15 12 10 12 12 11 11 12 17 21 19 13 11 14 16 18 21 11 4 8 8 10 15 17
Wind_Direction_500mb
355 351 350 349 348 346 350 350 347 347 345 342 340 336 331 324 317 304 309 311 303 268 296 283 289 285 286 239 228 300 337 347 342 335 219 176 167 172 182 229 281 310 303 5 317 172 67 349 344 60 304 320 346 214
355 352 349 347 347 344 344 349 347 346 345 342 340 335 330 326 314 301 299 317 311 283 279 307 304 290 273 277 265 273 300 277 225 302 332 307 191 147 158 242 122 216 6 304 30 216 344 336 52 5 349 350 4 350
353 353 351 349 349 345 343 346 348 347 346 343 341 339 330 320 311 292 300 334 327 294 313 318 311 332 314 289 254 232 238 244 211 254 254 241 45 329 50 187 54 298 3 296 328 245 341 309 355 349 1 2 357 1
351 352 351 350 349 346 345 349 350 348 348 346 343 346 341 326 315 294 301 327 311 306 290 286 313 325 293 257 248 243 248 275 299 298 252 263 203 193 181 61 351 243 314 318 291 307 336 322 349 350 352 358 7 2
349 350 350 350 350 348 348 353 351 350 350 347 343 350 351 348 346 341 329 279 223 299 277 290 318 345 311 285 245 259 261 262 274 304 324 243 252 211 192 174 196 154 201 64 286 297 269 288 325 340 349 357 358 353
347 349 348 349 350 350 349 351 350 350 350 345 341 1 6 0 357 349 335 218 342 324 304 310 316 308 305 324 294 254 255 257 229 215 244 266 300 52 327 280 213 192 187 163 254 288 293 294 312 332 344 351 353 352
342 347 347 346 348 348 346 349 350 350 350 344 338 346 3 7 2 327 301 305 312 313 280 301 305 290 319 317 314 304 303 267 231 227 206 224 267 311 220 180 258 286 279 249 268 271 308 312 316 332 336 348 355 356
339 343 346 344 345 345 344 347 349 351 352 349 333 326 322 320 328 326 325 327 300 285 278 280 273 315 350 322 319 329 324 322 245 215 292 203 287 348 326 302 333 309 254 255 254 262 282 303 318 322 329 349 338 339
337 339 345 344 342 344 344 346 346 350 352 348 329 331 328 352 340 333 324 316 308 244 260 244 260 299 320 307 309 332 345 344 314 78 277 81 333 317 7 360 354 345 333 288 276 273 260 270 317 317 321 322 329 342
333 336 340 344 341 339 344 347 345 349 352 358 355 359 346 329 318 323 330 304 290 256 256 258 302 280 280 313 345 352 354 337 334 191 309 159 121 354 352 337 332 328 329 340 339 218 215 278 307 299 291 306 318 342
328 334 336 339 340 336 339 346 344 348 357 1 350 338 334 345 345 339 320 23 339 329 264 262 284 317 339 322 359 18 345 328 338 325 345 337 79 359 340 331 327 332 332 330 335 307 273 273 290 287 281 300 315 342
323 329 335 334 336 333 336 342 344 344 346 331 318 309 345 7 4 29 319 333 29 267 282 253 305 313 355 26 39 13 345 338 297 347 329 318 326 338 336 330 326 330 333 324 328 342 265 254 281 279 271 273 296 317
316 323 333 332 332 333 336 339 336 328 335 332 335 340 7 346 39 30 319 294 272 249 293 309 314 61 82 38 75 344 358 287 319 308 299 267 303 317 321 327 335 348 345 333 317 324 335 282 260 270 264 271 272 291
311 316 327 329 321 332 334 327 327 322 335 314 328 326 129 308 227 209 220 236 285 276 322 334 5 76 26 40 353 344 300 330 346 339 311 305 311 318 336 331 315 334 349 339 321 314 301 289 271 301 244 241 257 257
310 317 326 330 327 324 331 324 320 292 272 265 258 260 234 244 274 290 278 288 313 337 335 356 34 49 20 35 7 359 0 9 340 295 270 309 325 336 331 340 348 342 319 335 330 320 302 281 281 263 212 224 251 249
309 317 330 330 325 326 333 329 302 259 247 233 229 245 254 282 284 304 315 318 330 335 342 25 37 42 4 86 8 7 336 296 276 236 296 313 331 340 343 348 357 341 341 336 333 313 288 277 270 270 256 250 226 236
303 309 319 330 327 329 332 308 269 232 235 230 241 239 251 270 272 277 271 310 339 337 308 85 45 223 30 48 303 202 241 231 278 304 321 326 333 339 349 357 1 354 347 351 347 339 295 273 260 262 259 252 249 235
300 312 315 328 324 331 334 223 242 242 244 246 239 262 279 286 271 293 292 309 326 335 234 222 158 58 193 191 268 240 266 309 326 338 342 352 350 4 11 16 22 7 7 8 3 5 360 288 259 256 253 250 253 256
303 315 324 329 318 328 292 253 228 252 242 257 261 266 283 291 292 291 289 287 296 334 255 165 149 198 232 219 244 335 4 352 329 346 18 7 2 28 40 38 32 14 15 23 21 18 13 29 83 219 237 237 242 240
297 314 306 287 291 292 274 261 234 242 242 232 254 264 274 284 292 291 277 269 304 317 216 200 217 226 213 85 351 322 349 342 351 347 1 352 318 24 28 23 28 22 24 23 26 18 18 22 38 70 179 161 190 199
298 320 289 300 279 236 251 257 242 244 237 229 249 258 270 280 292 295 263 263 235 215 226 239 261 158 149 359 356 343 24 26 11 27 13 28 50 43 35 35 30 20 14 18 22 23 25 23 15 48 54 82 100 83
300 303 312 305 250 237 247 235 234 235 266 255 267 274 267 242 262 276 285 231 229 248 245 250 275 192 165 93 145 96 5 18 41 80 52 46 30 39 39 31 29 37 38 35 34 25 27 34 29 33 45 53 57 82
302 303 279 243 246 240 249 227 232 210 220 251 208 192 251 227 234 267 245 244 254 258 252 242 213 193 185 57 22 210 2 43 75 50 31 23 12 44 43 39 36 34 39 40 43 42 38 33 46 65 60 64 68 55
233 235 239 239 217 260 248 241 223 237 235 302 141 228 250 228 247 240 245 251 264 274 236 232 218 198 202 298 10 67 2 326 4 42 27 38 37 30 23 28 33 37 39 43 44 48 51 51 37 60 74 76 77 75
215 230 220 246 240 248 231 258 240 106 234 212 196 244 263 221 158 245 249 267 273 237 220 213 196 170 187 188 120 186 34 49 37 7 41 78 56 56 55 29 6 30 35 42 35 39 53 59 62 51 51 73 85 89
217 226 200 212 229 194 221 224 218 225 211 201 236 217 201 156 187 234 237 227 315 229 205 210 205 190 210 245 224 259 308 16 344 335 8 2 352 56 47 31 28 34 34 32 41 41 50 58 62 61 58 67 84 87
235 250 230 225 244 243 302 313 333 297 235 229 212 183 146 213 234 242 243 300 246 192 165 157 171 170 193 273 202 204 214 283 335 316 311 293 66 79 53 49 54 41 28 20 18 29 35 37 38 38 47 69 74 74
227 244 206 198 223 240 223 210 161 232 234 234 292 200 197 192 218 255 229 174 164 165 170 169 254 261 258 224 203 213 228 256 308 344 310 307 298 115 102 41 359 322 350 8 24 33 20 19 31 39 45 57 70 77
224 214 204 253 221 221 218 202 218 223 219 237 178 233 247 204 261 273 284 248 240 198 184 203 195 175 186 177 188 216 238 283 302 27 68 53 71 61 78 55 40 342 348 336 350 3 13 8 5 15 30 46 67 80
236 203 211 216 202 214 224 210 237 250 252 253 249 263 274 271 286 300 257 232 215 301 281 218 185 187 188 188 186 183 235 301 305 216 161 148 89 70 64 71 14 325 324 337 330 331 332 330 326 318 2 64 70 78
209 194 216 220 237 244 247 249 258 266 264 254 250 241 255 266 296 56 49 31 235 217 241 193 160 167 182 168 165 169 165 180 195 219 247 238 235 235 244 256 281 299 296 303 309 316 324 318 298 208 205 208 186 181
202 207 215 231 248 252 260 258 254 256 255 243 234 227 227 211 124 156 117 82 116 129 134 132 126 111 119 116 146 191 201 212 215 216 202 210 216 223 233 252 259 264 276 288 302 316 327 317 286 195 138 147 150 146
216 224 226 244 252 254 257 232 220 236 249 251 265 269 274 251 129 161 199 225 238 239 234 229 195 179 207 250 227 216 205 215 224 238 254 276 275 252 238 236 243 255 274 289 306 322 328 317 211 162 156 132 124 125
Wind_Speed_850mb
58 58 58 61 63 63 59 59 60 60 66 66 64 50 36 31 26 29 32 15 22 15 54 19 13 35 31 12 5 14 18 6 6 6 3 6 6 9 5 7 9 8 9 5 8 3 9 55 17 15 15 49 48 44
62 62 62 62 63 64 63 59 60 65 70 72 62 49 38 29 29 24 38 25 27 33 53 64 38 26 32 32 20 6 6 6 6 5 4 5 3 5 3 5 3 3 9 7 10 1 14 22 22 25 36 38 59 65
63 64 66 66 65 64 64 60 60 71 74 73 63 48 36 30 27 23 33 25 23 24 45 12 10 25 19 21 19 9 10 9 10 14 5 3 5 1 2 5 7 7 15 6 13 4 33 28 41 54 61 64 66 79
64 65 67 68 68 68 65 57 63 72 73 70 60 47 34 26 19 18 23 14 17 19 9 20 28 29 23 20 24 26 25 22 30 29 6 5 4 12 3 4 5 5 10 13 11 17 48 2 56 68 82 79 96 93
65 66 68 69 70 70 61 58 69 73 69 67 56 40 31 25 16 12 9 2 1 8 9 26 37 13 12 13 19 23 38 44 38 8 3 5 6 5 2 9 10 11 8 5 6 33 21 41 59 71 79 87 86 83
64 67 67 68 69 66 59 64 72 71 67 60 46 30 27 21 16 9 4 1 6 17 12 8 21 17 17 19 22 43 37 44 26 8 6 11 7 5 2 4 3 27 16 15 11 39 46 63 55 60 70 79 84 76
63 67 67 67 67 63 60 68 73 70 67 51 35 21 20 18 14 5 5 15 18 21 8 11 12 12 31 22 21 18 21 21 34 13 9 11 12 10 6 6 7 20 21 22 21 45 43 27 40 58 66 64 76 63
62 66 67 66 66 62 56 70 73 68 63 36 26 25 14 15 19 14 15 21 16 9 7 5 9 13 16 12 14 12 11 11 3 10 9 4 9 4 6 10 24 24 28 30 25 40 47 46 44 49 55 58 72 64
61 65 66 67 66 58 55 69 73 66 57 39 23 18 4 6 11 23 32 20 5 8 5 4 5 7 23 13 11 14 12 5 7 1 4 3 7 5 16 33 47 50 35 33 25 36 33 34 41 36 43 46 54 63
59 64 65 65 66 55 55 67 71 63 56 41 16 9 5 20 29 24 8 5 4 4 7 6 4 5 12 8 7 12 11 6 6 2 15 5 5 16 46 52 49 56 55 47 31 26 34 28 41 36 27 36 40 43
58 63 64 64 64 55 54 65 66 62 51 43 22 8 23 14 10 6 7 3 8 5 7 12 15 17 13 4 4 10 4 6 8 7 7 4 3 17 56 55 51 49 47 48 50 37 33 31 35 42 34 31 31 39
58 60 63 66 64 49 55 59 61 54 46 38 22 18 16 13 9 9 6 8 5 6 10 10 28 9 4 9 8 8 5 6 5 18 8 7 8 42 46 48 48 52 56 50 41 31 29 27 27 41 39 29 25 31
60 58 60 64 54 45 56 55 51 42 36 17 8 7 7 9 15 8 8 9 6 8 23 39 11 1 3 11 5 3 7 5 15 4 5 5 23 50 49 41 40 51 53 48 43 29 14 20 41 47 43 43 35 31
65 60 57 57 44 61 59 48 42 30 13 5 5 10 6 4 5 9 9 10 26 19 46 41 3 5 5 5 2 8 4 3 9 8 6 9 45 58 60 55 44 45 54 44 42 33 25 26 25 25 55 45 35 39
66 64 54 43 57 60 51 42 27 14 5 5 4 5 6 12 23 42 42 19 33 43 43 10 7 7 6 6 6 7 13 8 6 5 5 39 58 59 50 46 47 52 49 48 42 39 35 34 33 28 14 30 33 40
70 66 49 53 58 58 46 34 9 6 6 7 10 4 17 7 20 26 28 31 35 40 23 7 5 7 6 3 10 6 12 5 7 6 42 60 53 49 47 45 47 40 47 44 30 33 42 53 44 37 33 30 31 19
66 57 55 52 58 53 36 12 4 8 8 8 11 23 32 34 34 36 28 32 31 31 3 5 5 8 2 6 2 4 5 8 30 54 56 47 47 41 35 36 39 46 43 42 41 42 32 47 41 42 45 47 37 45
65 60 51 46 53 49 25 8 7 9 10 18 10 29 30 34 36 25 25 27 24 31 3 4 5 5 4 5 7 7 19 39 43 49 34 27 25 32 37 40 46 38 52 44 52 54 38 24 34 42 45 45 51 55
61 61 50 23 30 31 11 7 12 9 17 22 30 34 34 32 33 36 29 29 25 21 6 2 3 5 6 11 7 19 39 41 49 33 28 24 17 27 42 44 55 45 57 56 61 50 55 41 10 15 32 32 38 43
54 52 34 19 22 10 10 13 12 13 11 13 18 30 34 30 38 42 23 15 8 8 2 2 8 7 5 3 3 10 19 30 32 29 42 33 15 22 35 39 39 53 50 67 64 63 61 58 31 16 8 12 20 23
49 34 26 18 24 25 15 12 14 18 15 16 23 32 24 26 38 45 21 20 10 7 5 16 18 14 9 7 9 11 6 17 7 14 28 32 31 34 37 36 45 39 41 52 62 58 66 56 59 49 55 46 37 42
42 25 35 13 12 13 20 24 17 9 15 28 39 45 19 15 26 42 38 16 14 24 26 24 9 11 11 7 5 1 8 10 14 7 22 22 26 30 36 38 41 48 50 46 42 51 55 56 53 48 37 34 50 44
14 9 11 13 13 14 15 21 13 14 7 8 8 6 7 9 13 16 7 14 26 33 31 28 15 5 2 7 13 10 5 9 12 18 15 18 9 15 24 30 38 40 44 44 39 42 52 55 44 48 56 49 41 46
15 11 11 12 21 11 10 9 14 10 9 1 5 7 7 10 8 4 8 24 40 37 36 32 20 7 12 2 4 2 8 11 10 9 13 12 20 8 17 25 28 31 31 34 36 37 38 44 44 50 47 51 55 58
10 16 15 15 13 10 8 7 6 1 9 9 9 7 6 6 2 5 6 14 25 31 33 23 29 9 12 3 2 7 16 12 11 12 17 14 11 5 11 9 21 20 27 28 30 34 38 35 40 39 39 40 49 50
13 15 18 15 8 11 9 7 8 10 7 7 10 10 10 5 7 9 6 10 14 27 33 25 25 19 14 16 10 2 2 7 6 6 8 7 4 7 10 17 16 20 19 22 21 24 26 30 34 36 35 34 35 39
12 13 20 23 13 13 5 8 7 1 7 10 7 8 6 8 8 8 17 13 15 27 19 17 20 18 11 4 10 11 5 7 10 7 8 3 7 11 15 18 16 15 20 19 15 16 20 25 28 29 28 23 26 27
26 12 12 16 16 19 6 4 7 7 8 11 8 6 10 15 9 6 7 11 22 26 19 11 4 13 13 8 12 11 8 12 7 7 12 19 11 6 5 13 6 7 10 15 16 15 16 18 21 23 22 26 24 21
17 22 20 9 16 13 16 13 11 19 20 9 1 5 7 13 23 26 24 17 18 19 28 24 17 22 16 12 12 16 16 13 14 2 18 19 14 10 9 18 15 2 7 11 15 19 20 17 14 14 14 16 19 20
15 36 16 11 10 14 21 34 31 42 39 41 41 33 33 43 46 47 43 29 18 15 16 12 25 27 21 21 16 9 4 6 11 8 17 14 12 13 13 8 10 8 15 19 23 28 29 25 15 6 2 3 6 9
13 34 16 19 12 27 47 50 42 45 50 43 35 30 39 47 24 12 4 5 17 41 27 31 25 19 18 18 12 11 11 13 15 16 16 14 16 22 21 18 21 17 20 22 22 24 26 18 6 4 6 5 4 2
25 27 15 10 17 49 44 35 37 35 33 18 13 30 34 15 8 10 8 11 12 30 34 28 24 20 14 9 4 8 8 10 12 11 6 7 11 15 15 17 15 14 18 19 19 23 24 16 6 2 5 11 12 12
42 36 38 21 13 15 33 26 14 10 23 24 35 42 41 13 9 9 9 13 20 18 13 16 21 19 5 7 11 15 15 12 10 12 12 11 11 12 17 21 19 13 11 14 16 18 21 11 4 8 8 10 15 17
Wind_Direction_850mb
355 351 350 349 348 346 350 350 347 347 345 342 340 336 331 324 317 304 309 311 303 268 296 283 289 285 286 239 228 300 337 347 342 335 219 176 167 172 182 229 281 310 303 5 317 172 67 349 344 60 304 320 346 214
355 352 349 347 347 344 344 349 347 346 345 342 340 335 330 326 314 301 299 317 311 283 279 307 304 290 273 277 265 273 300 277 225 302 332 307 191 147 158 242 122 216 6 304 30 216 344 336 52 5 349 350 4 350
353 353 351 349 349 345 343 346 348 347 346 343 341 339 330 320 311 292 300 334 327 294 313 318 311 332 314 289 254 232 238 244 211 254 254 241 45 329 50 187 54 298 3 296 328 245 341 309 355 349 1 2 357 1
351 352 351 350 349 346 345 349 350 348 348 346 343 346 341 326 315 294 301 327 311 306 290 286 313 325 293 257 248 243 248 275 299 298 252 263 203 193 181 61 351 243 314 318 291 307 336 322 349 350 352 358 7 2
349 350 350 350 350 348 348 353 351 350 350 347 343 350 351 348 346 341 329 279 223 299 277 290 318 345 311 285 245 259 261 262 274 304 324 243 252 211 192 174 196 154 201 64 286 297 269 288 325 340 349 357 358 353
347 349 348 349 350 350 349 351 350 350 350 345 341 1 6 0 357 349 335 218 342 324 304 310 316 308 305 324 294 254 255 257 229 215 244 266 300 52 327 280 213 192 187 163 254 288 293 294 312 332 344 351 353 352
342 347 347 346 348 348 346 349 350 350 350 344 338 346 3 7 2 327 301 305 312 313 280 301 305 290 319 317 314 304 303 267 231 227 206 224 267 311 220 180 258 286 279 249 268 271 308 312 316 332 336 348 355 356
339 343 346 344 345 345 344 347 349 351 352 349 333 326 322 320 328 326 325 327 300 285 278 280 273 315 350 322 319 329 324 322 245 215 292 203 287 348 326 302 333 309 254 255 254 262 282 303 318 322 329 349 338 339
337 339 345 344 342 344 344 346 346 350 352 348 329 331 328 352 340 333 324 316 308 244 260 244 260 299 320 307 309 332 345 344 314 78 277 81 333 317 7 360 354 345 333 288 276 273 260 270 317 317 321 322 329 342
333 336 340 344 341 339 344 347 345 349 352 358 355 359 346 329 318 323 330 304 290 256 256 258 302 280 280 313 345 352 354 337 334 191 309 159 121 354 352 337 332 328 329 340 339 218 215 278 307 299 291 306 318 342
328 334 336 339 340 336 339 346 344 348 357 1 350 338 334 345 345 339 320 23 339 329 264 262 284 317 339 322 359 18 345 328 338 325 345 337 79 359 340 331 327 332 332 330 335 307 273 273 290 287 281 300 315 342
323 329 335 334 336 333 336 342 344 344 346 331 318 309 345 7 4 29 319 333 29 267 282 253 305 313 355 26 39 13 345 338 297 347 329 318 326 338 336 330 326 330 333 324 328 342 265 254 281 279 271 273 296 317
316 323 333 332 332 333 336 339 336 328 335 332 335 340 7 346 39 30 319 294 272 249 293 309 314 61 82 38 75 344 358 287 319 308 299 267 303 317 321 327 335 348 345 333 317 324 335 282 260 270 264 271 272 291
311 316 327 329 321 332 334 327 327 322 335 314 328 326 129 308 227 209 220 236 285 276 322 334 5 76 26 40 353 344 300 330 346 339 311 305 311 318 336 331 315 334 349 339 321 314 301 289 271 301 244 241 257 257
310 317 326 330 327 324 331 324 320 292 272 265 258 260 234 244 274 290 278 288 313 337 335 356 34 49 20 35 7 359 0 9 340 295 270 309 325 336 331 340 348 342 319 335 330 320 302 281 281 263 212 224 251 249
309 317 330 330 325 326 333 329 302 259 247 233 229 245 254 282 284 304 315 318 330 335 342 25 37 42 4 86 8 7 336 296 276 236 296 313 331 340 343 348 357 341 341 336 333 313 288 277 270 270 256 250 226 236
303 309 319 330 327 329 332 308 269 232 235 230 241 239 251 270 272 277 271 310 339 337 308 85 45 223 30 48 303 202 241 231 278 304 321 326 333 339 349 357 1 354 347 351 347 339 295 273 260 262 259 252 249 235
300 312 315 328 324 331 334 223 242 242 244 246 239 262 279 286 271 293 292 309 326 335 234 222 158 58 193 191 268 240 266 309 326 338 342 352 350 4 11 16 22 7 7 8 3 5 360 288 259 256 253 250 253 256
303 315 324 329 318 328 292 253 228 252 242 257 261 266 283 291 292 291 289 287 296 334 255 165 149 198 232 219 244 335 4 352 329 346 18 7 2 28 40 38 32 14 15 23 21 18 13 29 83 219 237 237 242 240
297 314 306 287 291 292 274 261 234 242 242 232 254 264 274 284 292 291 277 269 304 317 216 200 217 226 213 85 351 322 349 342 351 347 1 352 318 24 28 23 28 22 24 23 26 18 18 22 38 70 179 161 190 199
298 320 289 300 279 236 251 257 242 244 237 229 249 258 270 280 292 295 263 263 235 215 226 239 261 158 149 359 356 343 24 26 11 27 13 28 50 43 35 35 30 20 14 18 22 23 25 23 15 48 54 82 100 83
300 303 312 305 250 237 247 235 234 235 266 255 267 274 267 242 262 276 285 231 229 248 245 250 275 192 165 93 145 96 5 18 41 80 52 46 30 39 39 31 29 37 38 35 34 25 27 34 29 33 45 53 57 82
302 303 279 243 246 240 249 227 232 210 220 251 208 192 251 227 234 267 245 244 254 258 252 242 213 193 185 57 22 210 2 43 75 50 31 23 12 44 43 39 36 34 39 40 43 42 38 33 46 65 60 64 68 55
233 235 239 239 217 260 248 241 223 237 235 302 141 228 250 228 247 240 245 251 264 274 236 232 218 198 202 298 10 67 2 326 4 42 27 38 37 30 23 28 33 37 39 43 44 48 51 51 37 60 74 76 77 75
215 230 220 246 240 248 231 258 240 106 234 212 196 244 263 221 158 245 249 267 273 237 220 213 196 170 187 188 120 186 34 49 37 7 41 78 56 56 55 29 6 30 35 42 35 39 53 59 62 51 51 73 85 89
217 226 200 212 229 194 221 224 218 225 211 201 236 217 201 156 187 234 237 227 315 229 205 210 205 190 210 245 224 259 308 16 344 335 8 2 352 56 47 31 28 34 34 32 41 41 50 58 62 61 58 67 84 87
235 250 230 225 244 243 302 313 333 297 235 229 212 183 146 213 234 242 243 300 246 192 165 157 171 170 193 273 202 204 214 283 335 316 311 293 66 79 53 49 54 41 28 20 18 29 35 37 38 38 47 69 74 74
227 244 206 198 223 240 223 210 161 232 234 234 292 200 197 192 218 255 229 174 164 165 170 169 254 261 258 224 203 213 228 256 308 344 310 307 298 115 102 41 359 322 350 8 24 33 20 19 31 39 45 57 70 77
224 214 204 253 221 221 218 202 218 223 219 237 178 233 247 204 261 273 284 248 240 198 184 203 195 175 186 177 188 216 238 283 302 27 68 53 71 61 78 55 40 342 348 336 350 3 13 8 5 15 30 46 67 80
236 203 211 216 202 214 224 210 237 250 252 253 249 263 274 271 286 300 257 232 215 301 281 218 185 187 188 188 186 183 235 301 305 216 161 148 89 70 64 71 14 325 324 337 330 331 332 330 326 318 2 64 70 78
209 194 216 220 237 244 247 249 258 266 264 254 250 241 255 266 296 56 49 31 235 217 241 193 160 167 182 168 165 169 165 180 195 219 247 238 235 235 244 256 281 299 296 303 309 316 324 318 298 208 205 208 186 181
202 207 215 231 248 252 260 258 254 256 255 243 234 227 227 211 124 156 117 82 116 129 134 132 126 111 119 116 146 191 201 212 215 216 202 210 216 223 233 252 259 264 276 288 302 316 327 317 286 195 138 147 150 146
216 224 226 244 252 254 257 232 220 236 249 251 265 269 274 251 129 161 199 225 238 239 234 229 195 179 207 250 227 216 205 215 224 238 254 276 275 252 238 236 243 255 274 289 306 322 328 317 211 162 156 132 124 125